Terminal Aerodrome Forecast
Issued by NWS

Home | Current Version | Previous Version | Text Only | Print | Product List | Glossary On
Versions: 1 2 3 4 5 6 7 8 9 10 11 12 13 14 15 16 17 18 19 20 21
000
FTUS41 KCAR 260521
TAFFVE
TAF
KFVE 260521Z 2606/2706 26022G35KT P6SM BKN040
     FM262000 27015G25KT P6SM SCT040
     FM270100 27011G18KT P6SM BKN040=

USA.gov is the U.S. government's official web portal to all federal, state and local government web resources and services.